Flag for Switzerland Weather past 2 weeks in Biel, Switzerland

Now
75 °F

Mild.


Feels Like: 78 °F
Forecast: 53 / 77 °F
Wind: 9 mph from East

Location: Grenchen

Current Time: Jul 24, 2014 at 12:51:10 PM

Latest Report: Jul 24, 2014 at 12:00 PM


Visibility: N/A

Pressure: 29.86 "Hg

Humidity: 53%

Dew point: 57 °F

Location of BielLocation

Historic Weather in Biel — Graph

°F

Biel temperature yesterday

Maximum temperature yesterday: 80 °F (at 3:00 PM)
Minimum temperature yesterday: 62 °F (at 2:00 AM)
Average temperature yesterday: 70 °F

Past Weeks' High & Low Weather Summary

 TemperatureHumidityPressure
High89 °F (Jul 18, 5:00 PM)100% (Jul 12, 8:00 AM)30.22 "Hg (Jul 12, 8:00 AM)
Low50 °F (Jul 10, 7:00 AM)18% (Jul 18, 5:00 PM)29.81 "Hg (Jul 19, 8:00 PM)
Average65 °F78%29.99 "Hg
* Reported Jul 9 3:00 PM — Jul 24 11:00 AM, Biel, Weather by CustomWeather, © 2014

Note: Actual official high and low records may vary slightly from our data, if they occured in-between our weather recording intervals... More about our weather records

Advertising

Biel weather history for previous 24 hours

 ConditionsComfort  
Time TempWeatherWind HumidityBarometerVisibility
11:00 AM
Jul 24
72 °FMild.6 mph59%29.87 "HgN/A
10:00 AM70 °FMild.2 mph65%29.88 "HgN/A
9:00 AM66 °FMild.No wind76%29.88 "HgN/A
8:00 AM62 °FCool.No wind90%29.88 "HgN/A
7:00 AM60 °FCool.1 mph95%29.88 "HgN/A
6:00 AM59 °FCool.1 mph94%29.88 "HgN/A
5:00 AM60 °FCool.No wind92%29.87 "HgN/A
4:00 AM60 °FCool.2 mph91%29.87 "HgN/A
3:00 AM61 °FCool.No wind87%29.86 "HgN/A
2:00 AM65 °FMild.3 mph75%29.86 "HgN/A
1:00 AM66 °FMild.5 mph73%29.86 "HgN/A
12:00 AM67 °FMild.5 mph73%29.86 "HgN/A
11:00 PM
Jul 23
67 °FMild.6 mph76%29.88 "HgN/A
10:00 PM69 °FMild.3 mph70%29.88 "HgN/A
9:00 PM72 °FMild.3 mph65%29.86 "HgN/A
8:00 PM74 °FMild.9 mph58%29.85 "HgN/A
7:00 PM77 °FMild.12 mph54%29.84 "HgN/A
6:00 PM78 °FWarm.17 mph49%29.83 "HgN/A
5:00 PM79 °FWarm.16 mph48%29.84 "HgN/A
4:00 PM79 °FWarm.16 mph50%29.85 "HgN/A
3:00 PM80 °FWarm.16 mph51%29.85 "HgN/A
Weather by CustomWeather, © 2014

See weather overviewHow to use our weather pages